Tracking 25710 objects as of 6-Jul-2022
HD Live streaming from Space Station
objects crossing your sky now

COSMOS 864

Track COSMOS 864 now!
10-day predictions
COSMOS 864 is classified as:


NORAD ID: 9509
Int'l Code: 1976-108A
Perigee: 966.0 km
Apogee: 1,008.9 km
Inclination: 82.9 °
Period: 104.7 minutes
Semi major axis: 7358 km
RCS: 2.1559 m2 (large)
Launch date: October 29, 1976
Source: Commonwealth of Independent States (former USSR) (CIS)
Launch site: PLESETSK MISSILE AND SPACE COMPLEX (PKMTR)
aabbcc
Your satellite tracking list
Your tracking list is empty




NASA's NSSDC Master Catalog

Two Line Element Set (TLE):
1 09509U 76108A   22187.60733799  .00000051  00000-0  37660-4 0  9991
2 09509  82.9409 138.6711 0029187 206.7786 326.5912 13.75388389292261
Source of the keplerian elements: AFSPC